130  
ASUS44 KEWX 190701  
RWREWX  
SOUTH TEXAS REGIONAL WEATHER ROUNDUP  
NATIONAL WEATHER SERVICE AUSTIN/SAN ANTONIO TX  
200 AM CDT THU OCT 19 2017  
 
NOTE: "FAIR" INDICATED FEW OR NO CLOUDS BELOW 12,000 FEET WITH NO  
SIGNIFICANT WEATHER AND/OR S TO VISIBILITY
.  
 
* - THESE STATIONS ARE NOT NWS OR FAA STATIONS...AND ARE NOT SUBJECT  
TO NWS AND FAA QUALITY CONTROL.
 
 
TXZ171-172-183>190-190800-  
TEXAS HILL COUNTRY AND EDWARDS PLATEAU  
 
CITY SKY/WX TMP DP RH WIND PRES REMARKS
 
JUNCTION CLEAR 53 45 74 VRB5 30.11F  
*LLANO NOT AVBL  
BURNET CLOUDY 59 48 67 CALM 30.14F  
*HORSESHOE BAY CLOUDY 60 49 68 S5 30.12S  
*KERRVILLE CLEAR 51 48 90 CALM 30.13F  
*FREDERICKSBRG CLOUDY 50 45 82 CALM 30.13F  
*ROCKSPRINGS NOT AVBL  
*BOERNE STAGE CLEAR 50 45 81 CALM 30.15S  
*CASTROVILLE CLEAR 58 49 73 CALM 30.13F  
HONDO CLEAR 54 48 80 CALM 30.11F  
*UVALDE CLEAR 55 49 81 NE6 30.11F  
DEL RIO CLEAR 61 50 67 E8 30.06F  
LAUGHLIN AFB PTCLDY 57 50 79 SE9 30.06F  
CARRIZO SPRGS PTCLDY 55 54 94 E5 30.08F  
*EAGLE PASS NOT AVBL  

 
 
TXZ173-191>194-202-209-217>225-228-190800-  
CENTRAL AND SOUTH CENTRAL TEXAS  
 
CITY SKY/WX TMP DP RH WIND PRES REMARKS
 
GEORGETOWN CLOUDY 64 52 64 S7 30.14S  
AUSTIN/BERGSTM MOCLDY 58 56 93 S5 30.12S  
AUSTIN/MABRY CLOUDY 63 54 72 CALM 30.13S  
*AUSTIN/EXEC CLOUDY 61 54 77 CALM 30.13S  
*LAGO VISTA MOCLDY 64 54 68 S5 30.14R  
SAN MARCOS N/A N/A N/A N/A MISG N/A  
NEW BRAUNFELS CLEAR 54 50 86 CALM 30.11S  
RANDOLPH AFB CLEAR 59 57 93 CALM 30.12S  
PT SAN ANTONIO CLEAR 56 53 88 N3 30.09F  
SAN ANTONIO MOCLDY 59 53 80 CALM 30.12F  
STINSON FIELD CLEAR 58 54 86 CALM 30.10S  
*LA GRANGE MOCLDY 59 56 91 CALM 30.10S  
*GIDDINGS MOCLDY 55 51 87 CALM 30.13S  
*GONZALES MOCLDY 62 62 99 CALM 30.11S  

 
 
TXZ163>164-176>182-195>201-210>213-226-227-235-190800-  
SOUTHEAST TEXAS  
 
CITY SKY/WX TMP DP RH WIND PRES REMARKS
 
COLLEGE STN MOCLDY 62 56 80 CALM 30.13R  
*BRYAN MOCLDY 58 57 96 CALM 30.14S  
*CALDWELL MOCLDY 57 55 92 CALM 30.13S  
*CROCKETT N/A 59 55 88 CALM 30.15F  
*BRENHAM MOCLDY 61 59 94 CALM 30.13S  
HUNTSVILLE PTCLDY 63 59 87 CALM 30.12F FOG  
CONROE FOG 56 56 100 CALM 30.12S VSB 3/4  
HOUSTON BUSH MOCLDY 63 62 97 CALM 30.11F  
HOUSTON HOBBY PTCLDY 67 61 81 NE6 30.10F  
*HOUSTON SW AP PTCLDY 64 62 91 CALM 30.11S  
PEARLAND MOCLDY 67 61 81 NE6 30.11F  
HOUSTON HOOKS PTCLDY 60 60 100 CALM 30.12S FOG  
ELLINGTON FLD PTCLDY 70 63 78 CALM 30.11F  
SUGAR LAND PTCLDY 70 63 78 E6 30.10F  
*HOUSTON EXEC CLOUDY 63 63 100 CALM 30.13R FOG  
*CLEVELAND MUN PTCLDY 57 56 94 CALM 30.13S FOG  
*WHARTON PTCLDY 61 58 88 CALM 30.11S  
*COLUMBUS FAIR 57 56 94 CALM 30.12S  
*EAGLE LAKE PTSUNNY 60 60 99 CALM 30.11S  

 
 
TXZ214>216-236>238-190800-  
THE UPPER TEXAS COAST  
 
CITY SKY/WX TMP DP RH WIND PRES REMARKS
 
*ORANGE N/A 58 58 100 CALM 30.13F FOG  
PORT ARTHUR CLOUDY 60 60 100 CALM 30.10F  
GALVESTON MOCLDY 78 64 61 SE14 30.10S  
ANGLETON MOCLDY 65 63 93 N3 30.09F  
*BAY CITY PTCLDY 64 63 98 CALM 30.09S  
PALACIOS PTCLDY 60 59 96 NE5 30.09F  

 
 
TXZ229>234-239>247-190800-  
TEXAS COASTAL BEND AND RIO GRANDE PLAINS  
 
CITY SKY/WX TMP DP RH WIND PRES REMARKS
 
VICTORIA PTCLDY 60 58 92 NE6 30.10F FOG  
*BEEVILLE CLOUDY 64 64 100 NE5 30.09F  
ROCKPORT CLOUDY 73 68 84 SE5 30.07F  
*PORT ARANSAS NOT AVBL  
*PORT LAVACA PTCLDY 64 61 91 NE5 30.09F  
*INGLESIDE NOT AVBL  
CORPUS CHRISTI CLOUDY 64 63 96 CALM 30.07F  
CORPUS NAS MOCLDY 74 68 81 SE6 30.07S  
*ROBSTOWN CLOUDY 68 64 85 E3 30.08F  
ALICE PTCLDY 60 57 89 N3 30.08S  
KINGSVILLE NAS CLOUDY 63 60 90 N3 30.07F  
COTULLA PTCLDY 63 57 81 E5 30.09F  
*FAITH RANCH CLEAR 63 57 82 SE7 30.08S  
LAREDO PTCLDY 65 60 84 SE6 30.09S  

 
 
TXZ248>255-190800-  
DEEP SOUTH TEXAS  
 
CITY SKY/WX TMP DP RH WIND PRES REMARKS
 
BROWNSVILLE PTCLDY 69 66 90 CALM 30.06F  
PORT ISABEL PTCLDY 67 64 90 CALM 30.05S  
*SOUTH PADRE NOT AVBL  
HARLINGEN CLEAR 67 66 97 CALM 30.05F  
*HEBBRONVILLE CLOUDY 60 56 88 CALM 30.10S  
MCALLEN CLOUDY 69 64 84 CALM 30.07F  
*WESLACO CLEAR 64 62 93 CALM 30.06S  
FALFURRIAS PTCLDY 64 60 88 CALM 30.07F  
EDINBURG PTCLDY 64 61 91 CALM 30.07F  
*ZAPATA PTCLDY 65 61 85 E3 30.07S  

 
 
TXZ213>215-236>238-242>244-246-247-251-254-255-190800-  
CMAN STATIONS  
 
STATION/POSITION TIME TEMP WIND PRES WAVE
 
AIR SEA DIR/SP/G HT/PER  
(UTC) (F) (DEG/KT/KT) (MB) (FT/S)  
SABINE PASS 0624 75 76 120/ 12/ 15 1021.1  
SEA RIM ST PARK 0600 75 110/ 11/ 14 1020.2  
NORTH JETTY/GLS 0618 76 110/ 14/ 18 1018.7  
EAGLE POINT 0624 75 73 120/ 9/ 11 1019.3  
MORGANS POINT 0624 71 77 70/ 3/ 5 1019.5  
PORT O'CONNOR 0624 76 76 120/ 9/ 12 1018.2  
MALAQUITE BEACH 0630 78 79 110/ 12/ 13 1017.6  
BAFFIN BAY 0630 76 75 120/ 7/ 9 1018.2  
PORT ISABEL 0630 77 78 120/ 6/ 7 1017.6  

 
 
 
CLICK HERE TO GO TO PREVIOUS BULLETINS.

The Nexlab TX Page Main Text Page